{"data":{"norad_id":66507,"intl_designator":"2025-263Y","name":"STARLINK-34767","alt_names":[],"object_type":"PAYLOAD","status":"ACTIVE","operator":null,"country":"US","launch_date":"2025-11-15","launch_site_code":"AFETR","launch_vehicle":null,"mission":null,"orbit_class":"UNKNOWN","rcs_meters":null,"size_class":null,"mass_kg":null,"dimensions":null,"purposes":["comms"],"wikipedia_slug":null,"has_3d_model":false,"image_url":null,"decayed_at":null,"tle_current":{"epoch":"2026-05-24T18:48:08.233632Z","epoch_age_seconds":94579,"freshness":"FRESH","line1":"1 66507U 25263Y   26144.78342863  .00015633  00000+0  57631-3 0  9992","line2":"2 66507  43.0006 281.2060 0001100 260.6959  99.3768 15.27586350 30532","mean_motion":15.2758635,"eccentricity":0.00011,"inclination_deg":43.0006,"raan_deg":281.206,"arg_perigee_deg":260.6959,"mean_anomaly_deg":99.3768,"bstar":0.00057631,"rev_number":3053,"period_min":94.266356857666,"perigee_km":482.27535354211,"apogee_km":483.78481030013,"semimajor_km":6861.1670819211,"source":"CELESTRAK","updated_at":"2026-05-25T13:38:21.247116Z"}}}